Location: ??
(35.5653°N, 139.6194°E)
Time: 05:15:37
(UTC+00:00)

NOSS 3-4 (A) - Pass Details

Date: 20 November 2019
Orbit: 907 x 1306 km, 63.4° (Epoch: 09 December)

Event Time Altitude Azimuth Distance (km) Brightness Sun altitude
Exits shadow 20:26:50 - 323° (NW) 3,322 5.8 -11.4°
Reaches altitude 10° 20:27:43 10° 321° (NW) 3,016 5.6 -11.2°
Maximum altitude 20:34:52 62° 243° (WSW) 1,341 4.0 -9.8°
Drops below altitude 10° 20:42:37 10° 165° (SSE) 3,253 6.7 -8.3°
Sets 20:45:31 0° 162° (SSE) 4,248 7.4 -7.8°
